Weather History for Price, UT

Change the Weather History Date:

Wednesday, May 1, 2013

  Actual Average Record
Temperature  
Mean Temperature 42 °F -  
Max Temperature 52 °F 63 °F 85 °F (1992)
Min Temperature 33 °F 35 °F 25 °F (1972)
Degree Days  
Heating Degree Days 22    
Moisture  
Dew Point 5 °F    
Average Humidity 22    
Maximum Humidity 30    
Minimum Humidity 16    
Precipitation  
Precipitation 0.00 in - - ()
Sea Level Pressure  
Sea Level Pressure 30.21 in    
Wind  
Wind Speed 15 mph (NW)    
Max Wind Speed 22 mph    
Max Gust Speed 34 mph    
Visibility 10 miles    
Events      
Averages and records for this station are not official NWS values.
T = Trace of Precipitation, MM = Missing Value Source: NWS Daily Summary

Daily Weather History Graph

Daily Weather History Graph

Search for Another Location

Airport:

Trip Planner

Search our weather history database for the weather conditions in past years. The results will help you decide how hot, cold, wet, or windy it might be!

Date:

Astronomy

May. 01, 2013 Rise Set
Actual Time 6:23 AM MDT 8:17 PM MDT
Civil Twilight 5:54 AM MDT 8:46 PM MDT
Nautical Twilight 5:18 AM MDT 9:22 PM MDT
Astronomical Twilight 4:40 AM MDT 10:00 PM MDT
Moon 1:29 AM MDT (5/1) 12:05 PM MDT (5/1)
Length of Visible Light 14h 52m
Length of Day
13h 53m
Waning Gibbous, 58% of the Moon is Illuminated
May 1
Waning Gibbous
May 2
Last Quarter
May 9
New
May 17
First Quarter
May 24
Full

Hourly Weather History & Observations

Time (MDT) Temp. Windchill Dew Point Humidity Pressure Visibility Wind Dir Wind Speed Gust Speed Precip Events Conditions
12:53 AM 44.1 °F 35.7 °F 3.0 °F 18% 29.87 in 10.0 mi North 20.7 mph 27.6 mph N/A   Clear
1:53 AM 42.1 °F 33.1 °F -0.0 °F 17% 29.92 in 10.0 mi North 20.7 mph 33.4 mph N/A   Clear
2:53 AM 39.9 °F 31.8 °F -2.0 °F 17% 29.96 in 10.0 mi North 15.0 mph 28.8 mph N/A   Clear
3:53 AM 37.0 °F 30.4 °F -2.0 °F 19% 30.00 in 10.0 mi NNW 9.2 mph - N/A   Clear
4:53 AM 34.0 °F 28.8 °F -0.9 °F 23% 30.02 in 10.0 mi NNW 5.8 mph - N/A   Clear
5:53 AM 35.1 °F 26.9 °F 1.0 °F 24% 30.05 in 10.0 mi NNW 11.5 mph - N/A   Clear
6:53 AM 33.8 °F 28.6 °F 3.2 °F 28% 30.14 in 10.0 mi NNW 5.8 mph - N/A   Clear
7:53 AM 37.9 °F 32.7 °F 3.9 °F 24% 30.14 in 10.0 mi NNW 6.9 mph - N/A   Clear
8:53 AM 39.9 °F 35.1 °F 3.9 °F 22% 30.15 in 10.0 mi Variable 6.9 mph - N/A   Clear
9:53 AM 43.0 °F 34.5 °F 1.0 °F 17% 30.17 in 10.0 mi WNW 19.6 mph 29.9 mph N/A   Clear
10:53 AM 45.0 °F 36.9 °F 1.0 °F 16% 30.19 in 10.0 mi NNW 20.7 mph 34.5 mph N/A   Clear
11:53 AM 46.0 °F 39.9 °F 1.9 °F 16% 30.21 in 10.0 mi WNW 13.8 mph 24.2 mph N/A   Clear
12:53 PM 48.0 °F - 5.0 °F 17% 30.22 in 10.0 mi WNW 17.3 mph 29.9 mph N/A   Clear
1:53 PM 51.1 °F - 8.1 °F 18% 30.21 in 10.0 mi WNW 18.4 mph 29.9 mph N/A   Partly Cloudy
2:53 PM 51.1 °F - 7.0 °F 17% 30.24 in 10.0 mi NW 17.3 mph 27.6 mph N/A   Clear
3:53 PM 51.1 °F - 9.0 °F 18% 30.26 in 10.0 mi WNW 18.4 mph 27.6 mph N/A   Clear
4:53 PM 52.0 °F - 10.0 °F 19% 30.29 in 10.0 mi WNW 18.4 mph 28.8 mph N/A   Clear
5:53 PM 48.9 °F - 10.0 °F 21% 30.32 in 10.0 mi NW 20.7 mph 29.9 mph N/A   Clear
6:53 PM 46.9 °F - 10.9 °F 23% 30.36 in 10.0 mi NW 21.9 mph 31.1 mph N/A   Clear
7:53 PM 44.1 °F 37.4 °F 12.0 °F 27% 30.38 in 10.0 mi NW 13.8 mph 21.9 mph N/A   Clear
8:53 PM 41.0 °F 34.3 °F 10.0 °F 28% 30.43 in 10.0 mi NW 11.5 mph - N/A   Clear
9:53 PM 39.9 °F 34.5 °F 10.0 °F 29% 30.46 in 10.0 mi West 8.1 mph - N/A   Clear
10:53 PM 37.9 °F 32.7 °F 8.1 °F 29% 30.50 in 10.0 mi WNW 6.9 mph - N/A   Clear
11:53 PM 37.0 °F 33.3 °F 8.1 °F 30% 30.52 in 10.0 mi NW 4.6 mph - N/A   Clear